Regional Weather Roundup
Issued by NWS Boston, MA

Home | Current Version | Previous Version | Text Only | Print | Product List | Glossary On
Versions: 1 2 3 4 5 6 7 8 9 10 11 12 13 14 15 16 17 18 19 20 21 22 23 24 25 26 27 28 29 30 31 32 33 34 35 36 37 38 39 40 41 42 43 44 45 46 47 48 49 50
950
ASUS41 KBOX 111310
RWRBOX

REGIONAL WEATHER ROUNDUP
NATIONAL WEATHER SERVICE TAUNTON MA
800 AM EST THU FEB 11 2016

NOTE:  "FAIR" INDICATES FEW OR NO CLOUDS BELOW 12,000 FEET WITH NO
SIGNIFICANT WEATHER AND/OR OBSTRUCTIONS TO VISIBILITY.  THE FOLLOWING
OBSERVATION LOCATIONS DO NOT REPORT PRESENT WEATHER...PROVINCETOWN...
SMITHFIELD...BLOCK ISLAND...KEENE...AND OXFORD.

MAZALL-111400-
EASTERN MASSACHUSETTS

CITY           SKY/WX    TMP DP  RH WIND       PRES   REMARKS
BOSTON         CLOUDY    26  14  60 W14G20    29.70R WCI  14
BEVERLY        CLOUDY    24  15  68 W6        29.68R WCI  17
LAWRENCE       CLOUDY    23  17  78 W7        29.69S WCI  15
BEDFORD        CLOUDY    24  11  57 W9        29.69R WCI  14
BLUE HILL        N/A     21  14  74 W13       29.65R WCI   9
NORWOOD        CLOUDY    25  13  60 W9        29.70S WCI  15
MARSHFIELD     CLOUDY    28  19  69 W5        29.71S WCI  23
PLYMOUTH       CLOUDY    24  16  71 W9        29.69S WCI  14
TAUNTON        CLOUDY    26  14  60 VRB7      29.70R WCI  18
NEW BEDFORD    CLOUDY    26  15  63 W9        29.71R WCI  17
$$

MAZALL-111400-
CAPE COD AND THE ISLANDS

CITY           SKY/WX    TMP DP  RH WIND       PRES   REMARKS
FALMOUTH       PTSUNNY   25  16  68 NW10      29.69S WCI  15
HYANNIS        SUNNY     26  18  71 NW6       29.67S WCI  19
CHATHAM        SUNNY     28  22  78 W5        29.69S WCI  23
PROVINCETOWN   PTSUNNY   31  21  66 NW13      29.69R WCI  21
NANTUCKET      SUNNY     31  20  63 NW12      29.69R WCI  22
MARTHAS VNYRD  SUNNY     28  17  63 NW10      29.70R WCI  19
$$

MAZALL-111400-
CENTRAL AND WESTERN MASSACHUSETTS

CITY           SKY/WX    TMP DP  RH WIND       PRES   REMARKS
WORCESTER      CLOUDY    19  12  74 W15       29.65R WCI   5
FITCHBURG      CLOUDY    23  13  65 W13       29.70R WCI  11
ORANGE         CLOUDY    21   9  59 NW10      29.71R WCI  10
SPRINGFIELD    MOSUNNY   21  10  61 NW14      29.74R WCI   8
WESTFIELD      CLOUDY    20   9  62 W9G21     29.75R WCI   9
NORTH ADAMS    CLOUDY    18   8  65 W9        29.74R WCI   7
PITTSFIELD     LGT SNOW  15   8  73 W14G20    29.69R WCI   0
$$

RIZALL-111400-
RHODE ISLAND

CITY           SKY/WX    TMP DP  RH WIND       PRES   REMARKS
PROVIDENCE     PTSUNNY   26  14  60 NW10      29.73R WCI  16
NEWPORT        CLOUDY    26  15  63 NW13G20   29.72R WCI  15
BLOCK ISLAND   CLOUDY    27  23  86 NW12G21   29.73R VSB 3/4 WCI  16
SMITHFIELD     MOSUNNY   25  12  58 W10G16    29.68R WCI  15
WESTERLY       SNOW      24  20  84 VRB7G17   29.76R VSB 1/2 WCI  16
$$

CTZALL-111400-
CONNECTICUT

CITY           SKY/WX    TMP DP  RH WIND       PRES   REMARKS
BRADLEY INTL   PTSUNNY   21   9  59 W14       29.76R WCI   8
HARTFORD       CLOUDY    24  10  55 NW9G17    29.79R WCI  14
BRIDGEPORT     MOSUNNY   23   3  42 W14G24    29.82R WCI  11
DANBURY        SUNNY     20  -4  34 VRB7G23   29.81R WCI  11
GROTON         LGT SNOW  24  20  84 NW12G21   29.77R FOG     WCI  13
NEW HAVEN      MOSUNNY   24   8  50 NW9G20    29.81R WCI  14
CHESTER        PTSUNNY   23  18  80 NW12G18   29.77R WCI  12
MERIDEN        CLOUDY    23  10  57 NW10      29.80R WCI  12
WILLIMANTIC    CLOUDY    24  16  71 W10       29.76R WCI  14
OXFORD         MOSUNNY   19   1  45 NW7G17    29.75  WCI  10
$$

MEZ002-015-021-024-NHZ003-005-008-011-012-014-VTZ005-008-111400-
NORTHERN NEW ENGLAND

CITY           SKY/WX    TMP DP  RH WIND       PRES   REMARKS
PORTLAND ME    CLOUDY    20  13  74 SW6       29.67R WCI  12
BANGOR ME      PTSUNNY   21  15  78 N5        29.61S WCI  15
CONCORD NH     CLOUDY    20  14  77 CALM      29.67R
MANCHESTER NH  PTSUNNY   21  17  84 CALM      29.67R
NASHUA NH      CLOUDY    25  16  68 W7        29.69R WCI  17
PORTSMOUTH NH  PTSUNNY   23  14  69 W6        29.65S WCI  15
JAFFREY NH     LGT SNOW  19  12  74 SW5       29.65R WCI  12
KEENE NH       CLOUDY    21  10  63 W7        29.70R WCI  13
BURLINGTON VT  MOCLDY    19   9  65 N8        29.72R WCI   9
MT. WASHINGTON FOG       -4  -4 100 W35         N/A  VSB 1/16WCI -33
$$

NYZ052-076-111400-
EASTERN NEW YORK

CITY           SKY/WX    TMP DP  RH WIND       PRES   REMARKS
ALBANY         MOCLDY    20   4  50 W16G25    29.80R WCI   6
NEW YORK CITY  MOSUNNY   24   4  42 W13G26    29.89R WCI  12
$$

ANZALL-111400-
MARINE OBSERVATIONS

STATION/POSITION TIME  TEMP    WIND        PRES    VSBY  WAVE
                       AIR SEA DIR/SP/G                  HT/PER
                 (UTC) (F)     (DEG/KT/KT) (MB)    (MI)  (FT/S)
BOSTON BUOY      1150   29 41  320/ 14/ 17 1004.8          3/10
BUZZARDS BAY     1200          320/ 16/ 19 1006.1R
NANTUCKET SOUND  1150   31 40  300/ 16/ 19 1004.9          2/ 4
MASS BAY-STELLWA 1204   29 42  310/ 14/ 16   N/A    1 7/8  2/10
ISLE OF SHOALS   1200   26     290/ 16/ 18 1003.5R
S OF BLOCK IS    NOT AVBL
$$

......................KEY.........................
  SKY/WX - SKY CONDITION/PRESENT WEATHER
  TMP    - TEMPERATURE IN FAHRENHEIT
  DWPT   - DEWPOINT IN FAHRENHEIT
  RH     - RELATIVE HUMIDITY IN PERCENT
  WIND   - DIRECTION AND SPEED IN MPH
  PRES   - MEAN SEA LEVEL PRESSURE IN INCHES OF HG
  WCI    - WIND CHILL INDEX
  VSB    - VISIBILITY IN MILES
  HX     - HEAT INDEX
  TC     - TEMPERATURE IN CELSIUS
  VRB    - VARIABLE WIND DIRECTION
  N/A    - NOT AVAILABLE




USA.gov is the U.S. government's official web portal to all federal, state and local government web resources and services.